Year,Month,Day,Hour,Minute,Value (Times are PST for temperature in C)
2015,04,14,00,00,7.10
2015,04,14,00,01,7.10
2015,04,14,00,02,7.00
2015,04,14,00,03,7.00
2015,04,14,00,04,7.00
2015,04,14,00,05,7.00
2015,04,14,00,06,7.00
2015,04,14,00,07,7.00
2015,04,14,00,08,7.00
2015,04,14,00,09,7.00
2015,04,14,00,10,7.00
2015,04,14,00,11,7.00
2015,04,14,00,12,7.00
2015,04,14,00,13,7.00
2015,04,14,00,14,6.90
2015,04,14,00,15,6.90
2015,04,14,00,16,6.90
2015,04,14,00,17,6.90
2015,04,14,00,18,6.90
2015,04,14,00,19,6.80
2015,04,14,00,20,6.80
2015,04,14,00,21,6.80
2015,04,14,00,22,6.80
2015,04,14,00,23,6.80
2015,04,14,00,24,6.80
2015,04,14,00,25,6.70
2015,04,14,00,26,6.70
2015,04,14,00,27,6.70
2015,04,14,00,28,6.70
2015,04,14,00,29,6.60
2015,04,14,00,30,6.60
2015,04,14,00,31,6.60
2015,04,14,00,32,6.60
2015,04,14,00,33,6.60
2015,04,14,00,34,6.50
2015,04,14,00,35,6.50
2015,04,14,00,36,6.40
2015,04,14,00,37,6.40
2015,04,14,00,38,6.30
2015,04,14,00,39,6.30
2015,04,14,00,40,6.20
2015,04,14,00,41,6.10
2015,04,14,00,42,6.10
2015,04,14,00,43,6.00
2015,04,14,00,44,6.00
2015,04,14,00,45,5.90
2015,04,14,00,46,5.90
2015,04,14,00,47,5.90
2015,04,14,00,48,5.90
2015,04,14,00,49,5.90
2015,04,14,00,50,5.90
2015,04,14,00,51,5.90
2015,04,14,00,52,5.90
2015,04,14,00,53,5.90
2015,04,14,00,54,5.90
2015,04,14,00,55,5.90
2015,04,14,00,56,5.90
2015,04,14,00,57,5.90
2015,04,14,00,58,5.90
2015,04,14,00,59,5.80
2015,04,14,01,00,5.80
2015,04,14,01,01,5.80
2015,04,14,01,02,5.80
2015,04,14,01,03,5.80
2015,04,14,01,04,5.80
2015,04,14,01,05,5.80
2015,04,14,01,06,5.80
2015,04,14,01,07,5.80
2015,04,14,01,08,5.80
2015,04,14,01,09,5.70
2015,04,14,01,10,5.70
2015,04,14,01,11,5.70
2015,04,14,01,12,5.70
2015,04,14,01,13,5.70
2015,04,14,01,14,5.70
2015,04,14,01,15,5.70
2015,04,14,01,16,5.70
2015,04,14,01,17,5.70
2015,04,14,01,18,5.70
2015,04,14,01,19,5.60
2015,04,14,01,20,5.70
2015,04,14,01,21,5.70
2015,04,14,01,22,5.70
2015,04,14,01,23,5.70
2015,04,14,01,24,5.70
2015,04,14,01,25,5.70
2015,04,14,01,26,5.70
2015,04,14,01,27,5.60
2015,04,14,01,28,5.60
2015,04,14,01,29,5.60
2015,04,14,01,30,5.60
2015,04,14,01,31,5.60
2015,04,14,01,32,5.60
2015,04,14,01,33,5.60
2015,04,14,01,34,5.60
2015,04,14,01,35,5.60
2015,04,14,01,36,5.50
2015,04,14,01,37,5.50
2015,04,14,01,38,5.50
2015,04,14,01,39,5.50
2015,04,14,01,40,5.50
2015,04,14,01,41,5.40
2015,04,14,01,42,5.40
2015,04,14,01,43,5.40
2015,04,14,01,44,5.40
2015,04,14,01,45,5.40
2015,04,14,01,46,5.40
2015,04,14,01,47,5.40
2015,04,14,01,48,5.40
2015,04,14,01,49,5.40
2015,04,14,01,50,5.40
2015,04,14,01,51,5.50
2015,04,14,01,52,5.50
2015,04,14,01,53,5.50
2015,04,14,01,54,5.50
2015,04,14,01,55,5.50
2015,04,14,01,56,5.50
2015,04,14,01,57,5.50
2015,04,14,01,58,5.50
2015,04,14,01,59,5.50
2015,04,14,02,00,5.50
2015,04,14,02,01,5.50
2015,04,14,02,02,5.50
2015,04,14,02,03,5.50
2015,04,14,02,04,5.50
2015,04,14,02,05,5.50
2015,04,14,02,06,5.50
2015,04,14,02,07,5.50
2015,04,14,02,08,5.50
2015,04,14,02,09,5.50
2015,04,14,02,10,5.50
2015,04,14,02,11,5.50
2015,04,14,02,12,5.50
2015,04,14,02,13,5.50
2015,04,14,02,14,5.50
2015,04,14,02,15,5.50
2015,04,14,02,16,5.60
2015,04,14,02,17,5.60
2015,04,14,02,18,5.60
2015,04,14,02,19,5.60
2015,04,14,02,20,5.60
2015,04,14,02,21,5.60
2015,04,14,02,22,5.60
2015,04,14,02,23,5.60
2015,04,14,02,24,5.70
2015,04,14,02,25,5.70
2015,04,14,02,26,5.70
2015,04,14,02,27,5.70
2015,04,14,02,28,5.70
2015,04,14,02,29,5.70
2015,04,14,02,30,5.70
2015,04,14,02,31,5.70
2015,04,14,02,32,5.70
2015,04,14,02,33,5.70
2015,04,14,02,34,5.70
2015,04,14,02,35,5.70
2015,04,14,02,36,5.70
2015,04,14,02,37,5.70
2015,04,14,02,38,5.70
2015,04,14,02,39,5.70
2015,04,14,02,40,5.70
2015,04,14,02,41,5.70
2015,04,14,02,42,5.60
2015,04,14,02,43,5.60
2015,04,14,02,44,5.60
2015,04,14,02,45,5.60
2015,04,14,02,46,5.60
2015,04,14,02,47,5.60
2015,04,14,02,48,5.60
2015,04,14,02,49,5.60
2015,04,14,02,50,5.50
2015,04,14,02,51,5.50
2015,04,14,02,52,5.50
2015,04,14,02,53,5.40
2015,04,14,02,54,5.40
2015,04,14,02,55,5.40
2015,04,14,02,56,5.40
2015,04,14,02,57,5.40
2015,04,14,02,58,5.40
2015,04,14,02,59,5.40
2015,04,14,03,00,5.40
2015,04,14,03,01,5.30
2015,04,14,03,02,5.30
2015,04,14,03,03,5.30
2015,04,14,03,04,5.30
2015,04,14,03,05,5.30
2015,04,14,03,06,5.30
2015,04,14,03,07,5.30
2015,04,14,03,08,5.30
2015,04,14,03,09,5.30
2015,04,14,03,10,5.30
2015,04,14,03,11,5.30
2015,04,14,03,12,5.30
2015,04,14,03,13,5.30
2015,04,14,03,14,5.30
2015,04,14,03,15,5.30
2015,04,14,03,16,5.30
2015,04,14,03,17,5.30
2015,04,14,03,18,5.30
2015,04,14,03,19,5.30
2015,04,14,03,20,5.20
2015,04,14,03,21,5.20
2015,04,14,03,22,5.20
2015,04,14,03,23,5.20
2015,04,14,03,24,5.10
2015,04,14,03,25,5.10
2015,04,14,03,26,5.00
2015,04,14,03,27,5.00
2015,04,14,03,28,5.00
2015,04,14,03,29,4.90
2015,04,14,03,30,4.80
2015,04,14,03,31,4.80
2015,04,14,03,32,4.80
2015,04,14,03,33,4.80
2015,04,14,03,34,4.80
2015,04,14,03,35,4.80
2015,04,14,03,36,4.80
2015,04,14,03,37,4.80
2015,04,14,03,38,4.80
2015,04,14,03,39,4.90
2015,04,14,03,40,4.90
2015,04,14,03,41,4.90
2015,04,14,03,42,5.00
2015,04,14,03,43,5.00
2015,04,14,03,44,5.10
2015,04,14,03,45,5.10
2015,04,14,03,46,5.10
2015,04,14,03,47,5.10
2015,04,14,03,48,5.10
2015,04,14,03,49,5.10
2015,04,14,03,50,5.10
2015,04,14,03,51,5.10
2015,04,14,03,52,5.10
2015,04,14,03,53,5.20
2015,04,14,03,54,5.20
2015,04,14,03,55,5.20
2015,04,14,03,56,5.20
2015,04,14,03,57,5.30
2015,04,14,03,58,5.30
2015,04,14,03,59,5.30
2015,04,14,04,00,5.20
2015,04,14,04,01,5.20
2015,04,14,04,02,5.20
2015,04,14,04,03,5.20
2015,04,14,04,04,5.20
2015,04,14,04,05,5.20
2015,04,14,04,06,5.10
2015,04,14,04,07,5.10
2015,04,14,04,08,5.10
2015,04,14,04,09,5.10
2015,04,14,04,10,5.00
2015,04,14,04,11,5.00
2015,04,14,04,12,5.00
2015,04,14,04,13,4.90
2015,04,14,04,14,4.90
2015,04,14,04,15,4.80
2015,04,14,04,16,4.80
2015,04,14,04,17,4.80
2015,04,14,04,18,4.70
2015,04,14,04,19,4.70
2015,04,14,04,20,4.70
2015,04,14,04,21,4.70
2015,04,14,04,22,4.70
2015,04,14,04,23,4.70
2015,04,14,04,24,4.70
2015,04,14,04,25,4.70
2015,04,14,04,26,4.70
2015,04,14,04,27,4.70
2015,04,14,04,28,4.60
2015,04,14,04,29,4.50
2015,04,14,04,30,4.50
2015,04,14,04,31,4.40
2015,04,14,04,32,4.40
2015,04,14,04,33,4.30
2015,04,14,04,34,4.30
2015,04,14,04,35,4.30
2015,04,14,04,36,4.20
2015,04,14,04,37,4.20
2015,04,14,04,38,4.20
2015,04,14,04,39,4.20
2015,04,14,04,40,4.20
2015,04,14,04,41,4.10
2015,04,14,04,42,4.10
2015,04,14,04,43,4.10
2015,04,14,04,44,4.10
2015,04,14,04,45,4.10
2015,04,14,04,46,4.10
2015,04,14,04,47,4.10
2015,04,14,04,48,4.10
2015,04,14,04,49,4.00
2015,04,14,04,50,4.00
2015,04,14,04,51,3.90
2015,04,14,04,52,3.90
2015,04,14,04,53,3.90
2015,04,14,04,54,3.90
2015,04,14,04,55,3.90
2015,04,14,04,56,3.90
2015,04,14,04,57,3.90
2015,04,14,04,58,3.80
2015,04,14,04,59,3.80
2015,04,14,05,00,3.80
2015,04,14,05,01,3.80
2015,04,14,05,02,3.70
2015,04,14,05,03,3.70
2015,04,14,05,04,3.70
2015,04,14,05,05,3.70
2015,04,14,05,06,3.70
2015,04,14,05,07,3.70
2015,04,14,05,08,3.70
2015,04,14,05,09,3.80
2015,04,14,05,10,3.80
2015,04,14,05,11,3.90
2015,04,14,05,12,4.00
2015,04,14,05,13,4.10
2015,04,14,05,14,4.20
2015,04,14,05,15,4.30
2015,04,14,05,16,4.40
2015,04,14,05,17,4.40
2015,04,14,05,18,4.50
2015,04,14,05,19,4.50
2015,04,14,05,20,4.50
2015,04,14,05,21,4.60
2015,04,14,05,22,4.60
2015,04,14,05,23,4.60
2015,04,14,05,24,4.60
2015,04,14,05,25,4.60
2015,04,14,05,26,4.50
2015,04,14,05,27,4.50
2015,04,14,05,28,4.50
2015,04,14,05,29,4.60
2015,04,14,05,30,4.60
2015,04,14,05,31,4.70
2015,04,14,05,32,4.70
2015,04,14,05,33,4.70
2015,04,14,05,34,4.80
2015,04,14,05,35,4.90
2015,04,14,05,36,4.90
2015,04,14,05,37,4.90
2015,04,14,05,38,4.90
2015,04,14,05,39,5.00
2015,04,14,05,40,5.10
2015,04,14,05,41,5.10
2015,04,14,05,42,5.10
2015,04,14,05,43,5.10
2015,04,14,05,44,5.20
2015,04,14,05,45,5.20
2015,04,14,05,46,5.20
2015,04,14,05,47,5.20
2015,04,14,05,48,5.20
2015,04,14,05,49,5.20
2015,04,14,05,50,5.10
2015,04,14,05,51,5.10
2015,04,14,05,52,5.10
2015,04,14,05,53,5.10
2015,04,14,05,54,5.00
2015,04,14,05,55,5.00
2015,04,14,05,56,4.90
2015,04,14,05,57,4.90
2015,04,14,05,58,4.80
2015,04,14,05,59,4.80
2015,04,14,06,00,4.80
2015,04,14,06,01,4.80
2015,04,14,06,02,4.80
2015,04,14,06,03,4.90
2015,04,14,06,04,4.90
2015,04,14,06,05,5.00
2015,04,14,06,06,5.00
2015,04,14,06,07,5.10
2015,04,14,06,08,5.20
2015,04,14,06,09,5.30
2015,04,14,06,10,5.30
2015,04,14,06,11,5.30
2015,04,14,06,12,5.30
2015,04,14,06,13,5.30
2015,04,14,06,14,5.30
2015,04,14,06,15,5.20
2015,04,14,06,16,5.20
2015,04,14,06,17,5.20
2015,04,14,06,18,5.10
2015,04,14,06,19,5.10
2015,04,14,06,20,5.10
2015,04,14,06,21,5.10
2015,04,14,06,22,5.10
2015,04,14,06,23,5.10
2015,04,14,06,24,5.00
2015,04,14,06,25,5.00
2015,04,14,06,26,5.00
2015,04,14,06,27,5.00
2015,04,14,06,28,5.00
2015,04,14,06,29,5.00
2015,04,14,06,30,5.10
2015,04,14,06,31,5.10
2015,04,14,06,32,5.20
2015,04,14,06,33,5.20
2015,04,14,06,34,5.20
2015,04,14,06,35,5.30
2015,04,14,06,36,5.30
2015,04,14,06,37,5.30
2015,04,14,06,38,5.30
2015,04,14,06,39,5.30
2015,04,14,06,40,5.30
2015,04,14,06,41,5.30
2015,04,14,06,42,5.30
2015,04,14,06,43,5.30
2015,04,14,06,44,5.30
2015,04,14,06,45,5.30
2015,04,14,06,46,5.30
2015,04,14,06,47,5.30
2015,04,14,06,48,5.30
2015,04,14,06,49,5.30
2015,04,14,06,50,5.30
2015,04,14,06,51,5.30
2015,04,14,06,52,5.30
2015,04,14,06,53,5.30
2015,04,14,06,54,5.30
2015,04,14,06,55,5.20
2015,04,14,06,56,5.30
2015,04,14,06,57,5.30
2015,04,14,06,58,5.20
2015,04,14,06,59,5.20
2015,04,14,07,00,5.20
2015,04,14,07,01,5.20
2015,04,14,07,02,5.20
2015,04,14,07,03,5.20
2015,04,14,07,04,5.20
2015,04,14,07,05,5.20
2015,04,14,07,06,5.20
2015,04,14,07,07,5.30
2015,04,14,07,08,5.30
2015,04,14,07,09,5.30
2015,04,14,07,10,5.40
2015,04,14,07,11,5.40
2015,04,14,07,12,5.40
2015,04,14,07,13,5.50
2015,04,14,07,14,5.50
2015,04,14,07,15,5.60
2015,04,14,07,16,5.60
2015,04,14,07,17,5.60
2015,04,14,07,18,5.60
2015,04,14,07,19,5.60
2015,04,14,07,20,5.60
2015,04,14,07,21,5.60
2015,04,14,07,22,5.60
2015,04,14,07,23,5.70
2015,04,14,07,24,5.70
2015,04,14,07,25,5.70
2015,04,14,07,26,5.70
2015,04,14,07,27,5.80
2015,04,14,07,28,5.80
2015,04,14,07,29,5.80
2015,04,14,07,30,5.80
2015,04,14,07,31,5.80
2015,04,14,07,32,5.90
2015,04,14,07,33,5.90
2015,04,14,07,34,5.90
2015,04,14,07,35,6.00
2015,04,14,07,36,6.00
2015,04,14,07,37,6.10
2015,04,14,07,38,6.10
2015,04,14,07,39,6.20
2015,04,14,07,40,6.30
2015,04,14,07,41,6.30
2015,04,14,07,42,6.30
2015,04,14,07,43,6.40
2015,04,14,07,44,6.40
2015,04,14,07,45,6.50
2015,04,14,07,46,6.50
2015,04,14,07,47,6.50
2015,04,14,07,48,6.60
2015,04,14,07,49,6.70
2015,04,14,07,50,6.70
2015,04,14,07,51,6.70
2015,04,14,07,52,6.80
2015,04,14,07,53,6.80
2015,04,14,07,54,6.80
2015,04,14,07,55,6.80
2015,04,14,07,56,6.90
2015,04,14,07,57,6.90
2015,04,14,07,58,6.90
2015,04,14,07,59,6.90
2015,04,14,08,00,7.00
2015,04,14,08,01,7.00
2015,04,14,08,02,7.00
2015,04,14,08,03,7.10
2015,04,14,08,04,7.10
2015,04,14,08,05,7.10
2015,04,14,08,06,7.10
2015,04,14,08,07,7.10
2015,04,14,08,08,7.20
2015,04,14,08,09,7.20
2015,04,14,08,10,7.20
2015,04,14,08,11,7.20
2015,04,14,08,12,7.30
2015,04,14,08,13,7.30
2015,04,14,08,14,7.30
2015,04,14,08,15,7.30
2015,04,14,08,16,7.40
2015,04,14,08,17,7.40
2015,04,14,08,18,7.40
2015,04,14,08,19,7.40
2015,04,14,08,20,7.40
2015,04,14,08,21,7.50
2015,04,14,08,22,7.50
2015,04,14,08,23,7.60
2015,04,14,08,24,7.60
2015,04,14,08,25,7.60
2015,04,14,08,26,7.60
2015,04,14,08,27,7.60
2015,04,14,08,28,7.70
2015,04,14,08,29,7.70
2015,04,14,08,30,7.70
2015,04,14,08,31,7.80
2015,04,14,08,32,7.80
2015,04,14,08,33,7.80
2015,04,14,08,34,7.90
2015,04,14,08,35,7.90
2015,04,14,08,36,7.90
2015,04,14,08,37,7.90
2015,04,14,08,38,7.90
2015,04,14,08,39,7.90
2015,04,14,08,40,7.90
2015,04,14,08,41,8.00
2015,04,14,08,42,8.00
2015,04,14,08,43,8.00
2015,04,14,08,44,8.00
2015,04,14,08,45,8.10
2015,04,14,08,46,8.10
2015,04,14,08,47,8.10
2015,04,14,08,48,8.10
2015,04,14,08,49,8.10
2015,04,14,08,50,8.10
2015,04,14,08,51,8.10
2015,04,14,08,52,8.20
2015,04,14,08,53,8.20
2015,04,14,08,54,8.20
2015,04,14,08,55,8.20
2015,04,14,08,56,8.30
2015,04,14,08,57,8.30
2015,04,14,08,58,8.30
2015,04,14,08,59,8.30
2015,04,14,09,00,8.40
2015,04,14,09,01,8.40
2015,04,14,09,02,8.40
2015,04,14,09,03,8.50
2015,04,14,09,04,8.60
2015,04,14,09,05,8.60
2015,04,14,09,06,8.60
2015,04,14,09,07,8.70
2015,04,14,09,08,8.70
2015,04,14,09,09,8.80
2015,04,14,09,10,8.80
2015,04,14,09,11,8.80
2015,04,14,09,12,8.80
2015,04,14,09,13,8.80
2015,04,14,09,14,8.80
2015,04,14,09,15,8.80
2015,04,14,09,16,8.80
2015,04,14,09,17,8.70
2015,04,14,09,18,8.70
2015,04,14,09,19,8.70
2015,04,14,09,20,8.80
2015,04,14,09,21,8.70
2015,04,14,09,22,8.70
2015,04,14,09,23,8.60
2015,04,14,09,24,8.60
2015,04,14,09,25,8.60
2015,04,14,09,26,8.60
2015,04,14,09,27,8.70
2015,04,14,09,28,8.70
2015,04,14,09,29,8.70
2015,04,14,09,30,8.80
2015,04,14,09,31,8.80
2015,04,14,09,32,8.80
2015,04,14,09,33,8.80
2015,04,14,09,34,8.80
2015,04,14,09,35,8.80
2015,04,14,09,36,8.80
2015,04,14,09,37,8.80
2015,04,14,09,38,8.90
2015,04,14,09,39,8.80
2015,04,14,09,40,8.80
2015,04,14,09,41,8.80
2015,04,14,09,42,8.90
2015,04,14,09,43,8.90
2015,04,14,09,44,8.90
2015,04,14,09,45,8.80
2015,04,14,09,46,8.80
2015,04,14,09,47,8.80
2015,04,14,09,48,8.90
2015,04,14,09,49,8.90
2015,04,14,09,50,8.90
2015,04,14,09,51,8.90
2015,04,14,09,52,9.00
2015,04,14,09,53,9.00
2015,04,14,09,54,9.00
2015,04,14,09,55,9.00
2015,04,14,09,56,9.10
2015,04,14,09,57,9.10
2015,04,14,09,58,9.10
2015,04,14,09,59,9.10
2015,04,14,10,00,9.10
2015,04,14,10,01,9.10
2015,04,14,10,02,9.10
2015,04,14,10,03,9.20
2015,04,14,10,04,9.20
2015,04,14,10,05,9.20
2015,04,14,10,06,9.30
2015,04,14,10,07,9.30
2015,04,14,10,08,9.30
2015,04,14,10,09,9.40
2015,04,14,10,10,9.40
2015,04,14,10,11,9.40
2015,04,14,10,12,9.50
2015,04,14,10,13,9.50
2015,04,14,10,14,9.60
2015,04,14,10,15,9.60
2015,04,14,10,16,9.60
2015,04,14,10,17,9.50
2015,04,14,10,18,9.50
2015,04,14,10,19,9.50
2015,04,14,10,20,9.50
2015,04,14,10,21,9.50
2015,04,14,10,22,9.60
2015,04,14,10,23,9.70
2015,04,14,10,24,9.70
2015,04,14,10,25,9.70
2015,04,14,10,26,9.70
2015,04,14,10,27,9.70
2015,04,14,10,28,9.70
2015,04,14,10,29,9.70
2015,04,14,10,30,9.60
2015,04,14,10,31,9.60
2015,04,14,10,32,9.60
2015,04,14,10,33,9.50
2015,04,14,10,34,9.60
2015,04,14,10,35,9.60
2015,04,14,10,36,9.60
2015,04,14,10,37,9.60
2015,04,14,10,38,9.70
2015,04,14,10,39,9.70
2015,04,14,10,40,9.70
2015,04,14,10,41,9.70
2015,04,14,10,42,9.70
2015,04,14,10,43,9.70
2015,04,14,10,44,9.60
2015,04,14,10,45,9.60
2015,04,14,10,46,9.60
2015,04,14,10,47,9.60
2015,04,14,10,48,9.50
2015,04,14,10,49,9.50
2015,04,14,10,50,9.50
2015,04,14,10,51,9.50
2015,04,14,10,52,9.50
2015,04,14,10,53,9.40
2015,04,14,10,54,9.40
2015,04,14,10,55,9.40
2015,04,14,10,56,9.40
2015,04,14,10,57,9.40
2015,04,14,10,58,9.40
2015,04,14,10,59,9.50
2015,04,14,11,00,9.50
2015,04,14,11,01,9.60
2015,04,14,11,02,9.70
2015,04,14,11,03,9.70
2015,04,14,11,04,9.70
2015,04,14,11,05,9.70
2015,04,14,11,06,9.80
2015,04,14,11,07,9.80
2015,04,14,11,08,9.80
2015,04,14,11,09,9.80
2015,04,14,11,10,9.80
2015,04,14,11,11,9.80
2015,04,14,11,12,9.80
2015,04,14,11,13,9.80
2015,04,14,11,14,9.70
2015,04,14,11,15,9.70
2015,04,14,11,16,9.70
2015,04,14,11,17,9.70
2015,04,14,11,18,9.70
2015,04,14,11,19,9.70
2015,04,14,11,20,9.80
2015,04,14,11,21,9.80
2015,04,14,11,22,9.80
2015,04,14,11,23,9.90
2015,04,14,11,24,9.90
2015,04,14,11,25,10.00
2015,04,14,11,26,10.00
2015,04,14,11,27,10.10
2015,04,14,11,28,10.20
2015,04,14,11,29,10.20
2015,04,14,11,30,10.20
2015,04,14,11,31,10.20
2015,04,14,11,32,10.20
2015,04,14,11,33,10.20
2015,04,14,11,34,10.20
2015,04,14,11,35,10.20
2015,04,14,11,36,10.20
2015,04,14,11,37,10.20
2015,04,14,11,38,10.30
2015,04,14,11,39,10.30
2015,04,14,11,40,10.40
2015,04,14,11,41,10.40
2015,04,14,11,42,10.50
2015,04,14,11,43,10.50
2015,04,14,11,44,10.50
2015,04,14,11,45,10.50
2015,04,14,11,46,10.40
2015,04,14,11,47,10.30
2015,04,14,11,48,10.30
2015,04,14,11,49,10.30
2015,04,14,11,50,10.30
2015,04,14,11,51,10.30
2015,04,14,11,52,10.30
2015,04,14,11,53,10.30
2015,04,14,11,54,10.30
2015,04,14,11,55,10.30
2015,04,14,11,56,10.40
2015,04,14,11,57,10.40
2015,04,14,11,58,10.50
2015,04,14,11,59,10.50
2015,04,14,12,00,10.50
2015,04,14,12,01,10.60
2015,04,14,12,02,10.60
2015,04,14,12,03,10.60
2015,04,14,12,04,10.50
2015,04,14,12,05,10.40
2015,04,14,12,06,10.30
2015,04,14,12,07,10.20
2015,04,14,12,08,10.10
2015,04,14,12,09,10.10
2015,04,14,12,10,10.10
2015,04,14,12,11,10.20
2015,04,14,12,12,10.20
2015,04,14,12,13,10.30
2015,04,14,12,14,10.30
2015,04,14,12,15,10.40
2015,04,14,12,16,10.40
2015,04,14,12,17,10.40
2015,04,14,12,18,10.40
2015,04,14,12,19,10.40
2015,04,14,12,20,10.40
2015,04,14,12,21,10.50
2015,04,14,12,22,10.60
2015,04,14,12,23,10.60
2015,04,14,12,24,10.70
2015,04,14,12,25,10.70
2015,04,14,12,26,10.70
2015,04,14,12,27,10.70
2015,04,14,12,28,10.60
2015,04,14,12,29,10.50
2015,04,14,12,30,10.30
2015,04,14,12,31,10.20
2015,04,14,12,32,10.20
2015,04,14,12,33,10.20
2015,04,14,12,34,10.20
2015,04,14,12,35,10.20
2015,04,14,12,36,10.30
2015,04,14,12,37,10.30
2015,04,14,12,38,10.30
2015,04,14,12,39,10.30
2015,04,14,12,40,10.30
2015,04,14,12,41,10.30
2015,04,14,12,42,10.30
2015,04,14,12,43,10.30
2015,04,14,12,44,10.30
2015,04,14,12,45,10.30
2015,04,14,12,46,10.30
2015,04,14,12,47,10.30
2015,04,14,12,48,10.40
2015,04,14,12,49,10.40
2015,04,14,12,50,10.40
2015,04,14,12,51,10.50
2015,04,14,12,52,10.60
2015,04,14,12,53,10.70
2015,04,14,12,54,10.80
2015,04,14,12,55,10.90
2015,04,14,12,56,11.00
2015,04,14,12,57,11.00
2015,04,14,12,58,11.10
2015,04,14,12,59,11.10
2015,04,14,13,00,11.10
2015,04,14,13,01,11.00
2015,04,14,13,02,11.00
2015,04,14,13,03,10.90
2015,04,14,13,04,10.80
2015,04,14,13,05,10.80
2015,04,14,13,06,10.80
2015,04,14,13,07,10.80
2015,04,14,13,08,10.80
2015,04,14,13,09,10.80
2015,04,14,13,10,10.70
2015,04,14,13,11,10.70
2015,04,14,13,12,10.70
2015,04,14,13,13,10.70
2015,04,14,13,14,10.70
2015,04,14,13,15,10.80
2015,04,14,13,16,10.80
2015,04,14,13,17,10.80
2015,04,14,13,18,10.70
2015,04,14,13,19,10.70
2015,04,14,13,20,10.70
2015,04,14,13,21,10.80
2015,04,14,13,22,10.80
2015,04,14,13,23,10.80
2015,04,14,13,24,10.80
2015,04,14,13,25,10.90
2015,04,14,13,26,10.90
2015,04,14,13,27,10.90
2015,04,14,13,28,11.00
2015,04,14,13,29,11.00
2015,04,14,13,30,11.10
2015,04,14,13,31,11.10
2015,04,14,13,32,11.10
2015,04,14,13,33,11.10
2015,04,14,13,34,11.10
2015,04,14,13,35,11.20
2015,04,14,13,36,11.20
2015,04,14,13,37,11.20
2015,04,14,13,38,11.20
2015,04,14,13,39,11.20
2015,04,14,13,40,11.30
2015,04,14,13,41,11.30
2015,04,14,13,42,11.40
2015,04,14,13,43,11.40
2015,04,14,13,44,11.50
2015,04,14,13,45,11.50
2015,04,14,13,46,11.40
2015,04,14,13,47,11.40
2015,04,14,13,48,11.40
2015,04,14,13,49,11.40
2015,04,14,13,50,11.30
2015,04,14,13,51,11.30
2015,04,14,13,52,11.30
2015,04,14,13,53,11.40
2015,04,14,13,54,11.40
2015,04,14,13,55,11.60
2015,04,14,13,56,11.60
2015,04,14,13,57,11.80
2015,04,14,13,58,11.80
2015,04,14,13,59,11.90
2015,04,14,14,00,11.90
2015,04,14,14,01,11.90
2015,04,14,14,02,11.90
2015,04,14,14,03,11.90
2015,04,14,14,04,11.80
2015,04,14,14,05,11.70
2015,04,14,14,06,11.70
2015,04,14,14,07,11.60
2015,04,14,14,08,11.60
2015,04,14,14,09,11.70
2015,04,14,14,10,11.70
2015,04,14,14,11,11.70
2015,04,14,14,12,11.70
2015,04,14,14,13,11.70
2015,04,14,14,14,11.70
2015,04,14,14,15,11.70
2015,04,14,14,16,11.80
2015,04,14,14,17,11.90
2015,04,14,14,18,12.00
2015,04,14,14,19,12.00
2015,04,14,14,20,12.00
2015,04,14,14,21,12.00
2015,04,14,14,22,12.00
2015,04,14,14,23,12.00
2015,04,14,14,24,12.00
2015,04,14,14,25,12.10
2015,04,14,14,26,12.00
2015,04,14,14,27,12.00
2015,04,14,14,28,11.90
2015,04,14,14,29,11.90
2015,04,14,14,30,11.80
2015,04,14,14,31,11.60
2015,04,14,14,32,11.50
2015,04,14,14,33,11.30
2015,04,14,14,34,11.30
2015,04,14,14,35,11.30
2015,04,14,14,36,11.30
2015,04,14,14,37,11.30
2015,04,14,14,38,11.30
2015,04,14,14,39,11.30
2015,04,14,14,40,11.20
2015,04,14,14,41,11.20
2015,04,14,14,42,11.20
2015,04,14,14,43,11.10
2015,04,14,14,44,11.00
2015,04,14,14,45,11.00
2015,04,14,14,46,11.00
2015,04,14,14,47,11.10
2015,04,14,14,48,11.10
2015,04,14,14,49,11.00
2015,04,14,14,50,11.00
2015,04,14,14,51,10.90
2015,04,14,14,52,10.90
2015,04,14,14,53,10.90
2015,04,14,14,54,10.80
2015,04,14,14,55,10.80
2015,04,14,14,56,10.80
2015,04,14,14,57,10.90
2015,04,14,14,58,10.90
2015,04,14,14,59,10.90
2015,04,14,15,00,10.90
2015,04,14,15,01,10.90
2015,04,14,15,02,10.80
2015,04,14,15,03,10.80
2015,04,14,15,04,10.90
2015,04,14,15,05,10.80
2015,04,14,15,06,10.80
2015,04,14,15,07,10.70
2015,04,14,15,08,10.60
2015,04,14,15,09,10.50
2015,04,14,15,10,10.50
2015,04,14,15,11,10.50
2015,04,14,15,12,10.40
2015,04,14,15,13,10.40
2015,04,14,15,14,10.30
2015,04,14,15,15,10.30
2015,04,14,15,16,10.30
2015,04,14,15,17,10.30
2015,04,14,15,18,10.30
2015,04,14,15,19,10.30
2015,04,14,15,20,10.30
2015,04,14,15,21,10.30
2015,04,14,15,22,10.30
2015,04,14,15,23,10.30
2015,04,14,15,24,10.20
2015,04,14,15,25,10.20
2015,04,14,15,26,10.20
2015,04,14,15,27,10.20
2015,04,14,15,28,10.20
2015,04,14,15,29,10.30
2015,04,14,15,30,10.30
2015,04,14,15,31,10.30
2015,04,14,15,32,10.40
2015,04,14,15,33,10.40
2015,04,14,15,34,10.50
2015,04,14,15,35,10.60
2015,04,14,15,36,10.70
2015,04,14,15,37,10.70
2015,04,14,15,38,10.80
2015,04,14,15,39,10.80
2015,04,14,15,40,10.80
2015,04,14,15,41,10.80
2015,04,14,15,42,10.80
2015,04,14,15,43,10.80
2015,04,14,15,44,10.90
2015,04,14,15,45,10.90
2015,04,14,15,46,10.90
2015,04,14,15,47,11.00
2015,04,14,15,48,11.10
2015,04,14,15,49,11.20
2015,04,14,15,50,11.10
2015,04,14,15,51,11.00
2015,04,14,15,52,11.00
2015,04,14,15,53,11.00
2015,04,14,15,54,11.10
2015,04,14,15,55,11.10
2015,04,14,15,56,11.20
2015,04,14,15,57,11.30
2015,04,14,15,58,11.50
2015,04,14,15,59,11.60
2015,04,14,16,00,11.60
2015,04,14,16,01,11.60
2015,04,14,16,02,11.70
2015,04,14,16,03,11.80
2015,04,14,16,04,11.80
2015,04,14,16,05,11.90
2015,04,14,16,06,11.90
2015,04,14,16,07,11.90
2015,04,14,16,08,11.90
2015,04,14,16,09,11.90
2015,04,14,16,10,11.80
2015,04,14,16,11,11.80
2015,04,14,16,12,11.80
2015,04,14,16,13,11.80
2015,04,14,16,14,11.70
2015,04,14,16,15,11.70
2015,04,14,16,16,11.60
2015,04,14,16,17,11.50
2015,04,14,16,18,11.40
2015,04,14,16,19,11.30
2015,04,14,16,20,11.30
2015,04,14,16,21,11.30
2015,04,14,16,22,11.30
2015,04,14,16,23,11.30
2015,04,14,16,24,11.30
2015,04,14,16,25,11.30
2015,04,14,16,26,11.30
2015,04,14,16,27,11.30
2015,04,14,16,28,11.30
2015,04,14,16,29,11.40
2015,04,14,16,30,11.50
2015,04,14,16,31,11.60
2015,04,14,16,32,11.70
2015,04,14,16,33,11.70
2015,04,14,16,34,11.60
2015,04,14,16,35,11.60
2015,04,14,16,36,11.60
2015,04,14,16,37,11.60
2015,04,14,16,38,11.60
2015,04,14,16,39,11.70
2015,04,14,16,40,11.70
2015,04,14,16,41,11.80
2015,04,14,16,42,11.90
2015,04,14,16,43,12.00
2015,04,14,16,44,12.10
2015,04,14,16,45,12.10
2015,04,14,16,46,12.20
2015,04,14,16,47,12.30
2015,04,14,16,48,12.30
2015,04,14,16,49,12.40
2015,04,14,16,50,12.50
2015,04,14,16,51,12.50
2015,04,14,16,52,12.50
2015,04,14,16,53,12.50
2015,04,14,16,54,12.50
2015,04,14,16,55,12.40
2015,04,14,16,56,12.40
2015,04,14,16,57,12.40
2015,04,14,16,58,12.50
2015,04,14,16,59,12.50
2015,04,14,17,00,12.60
2015,04,14,17,01,12.70
2015,04,14,17,02,12.70
2015,04,14,17,03,12.60
2015,04,14,17,04,12.50
2015,04,14,17,05,12.30
2015,04,14,17,06,12.10
2015,04,14,17,07,12.00
2015,04,14,17,08,11.90
2015,04,14,17,09,11.80
2015,04,14,17,10,11.80
2015,04,14,17,11,11.80
2015,04,14,17,12,11.80
2015,04,14,17,13,11.80
2015,04,14,17,14,11.80
2015,04,14,17,15,11.80
2015,04,14,17,16,11.80
2015,04,14,17,17,11.80
2015,04,14,17,18,11.80
2015,04,14,17,19,11.70
2015,04,14,17,20,11.70
2015,04,14,17,21,11.70
2015,04,14,17,22,11.60
2015,04,14,17,23,11.50
2015,04,14,17,24,11.50
2015,04,14,17,25,11.50
2015,04,14,17,26,11.40
2015,04,14,17,27,11.50
2015,04,14,17,28,11.50
2015,04,14,17,29,11.60
2015,04,14,17,30,11.70
2015,04,14,17,31,11.80
2015,04,14,17,32,11.80
2015,04,14,17,33,11.90
2015,04,14,17,34,12.00
2015,04,14,17,35,12.00
2015,04,14,17,36,12.10
2015,04,14,17,37,12.10
2015,04,14,17,38,12.20
2015,04,14,17,39,12.20
2015,04,14,17,40,12.10
2015,04,14,17,41,12.10
2015,04,14,17,42,12.10
2015,04,14,17,43,12.00
2015,04,14,17,44,12.00
2015,04,14,17,45,11.90
2015,04,14,17,46,11.90
2015,04,14,17,47,11.90
2015,04,14,17,48,11.80
2015,04,14,17,49,11.80